Regional Weather Roundup
Issued by NWS

Home | Current Version | Previous Version | Text Only | Print | Product List | Glossary On
Versions: 1 2 3 4 5 6 7 8 9 10 11 12 13 14 15 16 17 18 19 20 21 22 23 24 25 26 27
000
ASUS45 KCYS 161710
RWRWY

WYOMING REGIONAL WEATHER ROUNDUP
NATIONAL WEATHER SERVICE CHEYENNE WY
1100 AM MDT WED AUG 16 2017

NOTE:  "FAIR" INDICATES FEW OR NO CLOUDS BELOW 12,000 FEET
WITH NO SIGNIFICANT WEATHER AND/OR OBSTRUCTIONS TO VISIBILITY.

WYZ001-161800-
YELLOWSTONE NATIONAL PARK

CITY           SKY/WX    TMP DP  RH WIND       PRES   REMARKS
LK YELLOWSTONE   N/A     58  42  55 VRB5      30.29S
W YELLOWSTONE  NOT AVBL

$$
WYZ002>013-054>058-071-098>099-161800-
NORTHERN WYOMING

CITY           SKY/WX    TMP DP  RH WIND       PRES   REMARKS
JACKSON        FAIR      61  41  47 S5        30.23F
CODY           FAIR      75  40  28 VRB5      30.09F
GREYBULL       FAIR      73  47  39 S7        30.05F
WORLAND        FAIR     N/A N/A N/A MISG      30.05F
SHERIDAN       FAIR      77  47  34 NE6       30.03S
BUFFALO        FAIR      75  36  24 E8        30.09S
GILLETTE       FAIR      73  38  27 E6        30.06S
HULETT         FAIR      70  48  46 E5        30.08S
NEWCASTLE      FAIR      70  39  32 N10G17    30.06S

$$
WYZ014>020-022>026-101>103-161800-
CENTRAL WYOMING

CITY           SKY/WX    TMP DP  RH WIND       PRES   REMARKS
BIG PINEY      FAIR      62  44  51 VRB3      30.26S
PINEDALE       FAIR      61  37  41 NW3       30.26F
DUBOIS         FAIR      64  36  34 NE7       30.22F
LANDER           N/A    N/A N/A N/A MISG      30.15S
RIVERTON       FAIR      64  46  52 CALM      30.15S
CASPER         FAIR      68  46  45 SW9       30.13F
DOUGLAS        FAIR      69  45  41 NW12      30.13R

$$
WYZ021-027>030-104>119-161800-
SOUTHERN WYOMING

CITY           SKY/WX    TMP DP  RH WIND       PRES   REMARKS
EVANSTON       FAIR      66  36  32 VRB3      30.26R
KEMMERER         N/A     64  37  36 SW5       30.27S
FORT BRIDGER   FAIR      65  39  37 NW3       30.29S
ROCK SPRINGS   FAIR      63  45  51 N6        30.24S
RAWLINS        FAIR      63  44  50 SW9       30.23S
SARATOGA       FAIR      61  45  55 CALM      30.25S
LARAMIE        FAIR      61  38  42 N12       30.22S
CHEYENNE       FAIR      65  38  36 N16G25    30.17R
TORRINGTON     FAIR      70  48  45 N12G21    30.06R
PINE BLUFFS    FAIR      66  45  45 N16G22    30.13R

$$




USA.gov is the U.S. government's official web portal to all federal, state and local government web resources and services.